Weather History for KLKU - May, 2013

Change the Weather History Date:

Friday, May 24, 2013

  Actual Average (KCHO) Record (KCHO)
Temperature  
Mean Temperature 55 °F 65 °F  
Max Temperature 66 °F 77 °F 92 °F (1936)
Min Temperature 44 °F 54 °F 40 °F (2006)
Degree Days  
Heating Degree Days 10 2  
Month to date heating degree days 108  
Since 1 July heating degree days 4420  
Cooling Degree Days 0 3  
Month to date cooling degree days 41  
Year to date cooling degree days 62  
Growing Degree Days 5 (Base 50)    
Moisture  
Dew Point 49 °F    
Average Humidity 69    
Maximum Humidity 100    
Minimum Humidity 39    
Precipitation  
Precipitation 0.06 in 0.15 in 0.54 in (2005)
Month to date precipitation 2.93  
Year to date precipitation 15.42  
Sea Level Pressure  
Sea Level Pressure 29.95 in    
Wind  
Wind Speed 5 mph (NW)    
Max Wind Speed 18 mph    
Max Gust Speed 28 mph    
Visibility 9 miles    
Events Fog , Rain    
T = Trace of Precipitation, MM = Missing Value Source: NWS Daily Summary

Daily Weather History Graph

Daily Weather History Graph

Search for Another Location

Airport or City:

Trip Planner

Search our weather history database for the weather conditions in past years. The results will help you decide how hot, cold, wet, or windy it might be!

Date:

Astronomy

May. 24, 2013 Rise Set
Actual Time 5:54 AM EDT 8:23 PM EDT
Civil Twilight 5:24 AM EDT 8:53 PM EDT
Nautical Twilight 4:47 AM EDT 9:31 PM EDT
Astronomical Twilight 4:05 AM EDT 10:12 PM EDT
Moon 8:03 PM EDT (5/24) 5:24 AM EDT (5/24)
Length of Visible Light 15h 29m
Length of Day
14h 28m
Full, 100% of the Moon is Illuminated
May 24
Full
May 25
Full
May 31
Last Quarter
Jun 8
New
Jun 16
First Quarter

Hourly Weather History & Observations

Time (EDT) Temp. Windchill Dew Point Humidity Pressure Visibility Wind Dir Wind Speed Gust Speed Precip Events Conditions
12:15 AM 64.4 °F - 62.6 °F 94% 29.81 in 7.0 mi Calm Calm - N/A   Scattered Clouds
12:35 AM 62.6 °F - 62.6 °F 100% 29.81 in 4.0 mi Calm Calm - N/A   Mostly Cloudy
12:55 AM 62.6 °F - 62.6 °F 100% 29.80 in 5.0 mi Calm Calm - N/A   Mostly Cloudy
1:15 AM 62.6 °F - 60.8 °F 94% 29.80 in 0.5 mi Calm Calm - N/A Fog Fog
1:35 AM 62.6 °F - 62.6 °F 100% 29.79 in 0.2 mi Calm Calm - N/A Fog Fog
1:55 AM 62.6 °F - 60.8 °F 94% 29.80 in 1.0 mi Calm Calm - N/A   Overcast
2:15 AM 62.6 °F - 62.6 °F 100% 29.79 in 3.0 mi Calm Calm - N/A   Scattered Clouds
2:35 AM 62.6 °F - 62.6 °F 100% 29.79 in 10.0 mi Calm Calm - N/A   Scattered Clouds
2:55 AM 62.6 °F - 62.6 °F 100% 29.78 in 10.0 mi Calm Calm - N/A   Scattered Clouds
3:15 AM 62.6 °F - 62.6 °F 100% 29.77 in 7.0 mi Calm Calm - N/A   Clear
3:35 AM 62.6 °F - 62.6 °F 100% 29.78 in 7.0 mi Calm Calm - N/A   Scattered Clouds
3:55 AM 62.6 °F - 62.6 °F 100% 29.77 in 7.0 mi Calm Calm - N/A   Mostly Cloudy
4:15 AM 62.6 °F - 62.6 °F 100% 29.78 in 10.0 mi Calm Calm - N/A   Mostly Cloudy
4:35 AM 62.6 °F - 62.6 °F 100% 29.78 in 10.0 mi Calm Calm - N/A   Overcast
4:55 AM 62.6 °F - 60.8 °F 94% 29.78 in 10.0 mi Calm Calm - N/A   Overcast
5:15 AM 62.6 °F - 60.8 °F 94% 29.78 in 10.0 mi Calm Calm - N/A   Overcast
5:35 AM 62.6 °F - 60.8 °F 94% 29.79 in 10.0 mi WSW 3.5 mph - N/A   Overcast
5:55 AM 62.6 °F - 60.8 °F 94% 29.80 in 10.0 mi WSW 3.5 mph - N/A   Overcast
6:15 AM 62.6 °F - 60.8 °F 94% 29.80 in 10.0 mi West 3.5 mph - N/A   Overcast
6:35 AM 62.6 °F - 60.8 °F 94% 29.81 in 10.0 mi West 4.6 mph - N/A   Overcast
6:55 AM 64.4 °F - 60.8 °F 88% 29.82 in 10.0 mi West 3.5 mph - N/A   Overcast
7:15 AM 64.4 °F - 60.8 °F 88% 29.83 in 10.0 mi West 5.8 mph - N/A Rain Rain
7:35 AM 64.4 °F - 62.6 °F 94% 29.84 in 10.0 mi West 5.8 mph - 0.01 in   Drizzle
7:55 AM 64.4 °F - 60.8 °F 88% 29.85 in 10.0 mi WNW 6.9 mph - 0.01 in   Overcast
8:15 AM 64.4 °F - 60.8 °F 88% 29.86 in 10.0 mi NNW 4.6 mph - 0.01 in Rain Rain
8:35 AM 60.8 °F - 57.2 °F 88% 29.88 in 10.0 mi NNW 12.7 mph 27.6 mph 0.03 in Rain Light Rain
8:55 AM 59.0 °F - 55.4 °F 88% 29.89 in 10.0 mi NNW 12.7 mph - 0.04 in Rain Rain
9:15 AM 59.0 °F - 55.4 °F 88% 29.91 in 10.0 mi NNW 8.1 mph 16.1 mph 0.01 in   Drizzle
9:35 AM 59.0 °F - 55.4 °F 88% 29.91 in 10.0 mi NNW 9.2 mph - 0.01 in   Light Drizzle
9:55 AM 60.8 °F - 55.4 °F 82% 29.92 in 10.0 mi North 8.1 mph 16.1 mph 0.01 in   Mostly Cloudy
10:15 AM 60.8 °F - 53.6 °F 77% 29.93 in 10.0 mi NNW 8.1 mph - N/A   Overcast
10:35 AM 60.8 °F - 51.8 °F 72% 29.94 in 10.0 mi NW 13.8 mph 18.4 mph N/A   Mostly Cloudy
10:55 AM 62.6 °F - 48.2 °F 59% 29.94 in 10.0 mi NW 17.3 mph 24.2 mph N/A   Scattered Clouds
11:15 AM 60.8 °F - 46.4 °F 59% 29.96 in 10.0 mi NNW 9.2 mph 24.2 mph N/A   Clear
11:35 AM 62.6 °F - 46.4 °F 55% 29.97 in 10.0 mi NW 13.8 mph 18.4 mph N/A   Scattered Clouds
11:55 AM 62.6 °F - 46.4 °F 55% 29.97 in 10.0 mi NW 11.5 mph 20.7 mph N/A   Scattered Clouds
12:15 PM 60.8 °F - 46.4 °F 59% 29.97 in 10.0 mi NNW 13.8 mph 18.4 mph N/A   Clear
12:35 PM 64.4 °F - 46.4 °F 52% 29.97 in 10.0 mi NNW 12.7 mph 17.3 mph N/A   Clear
12:55 PM 64.4 °F - 46.4 °F 52% 29.97 in 10.0 mi NNW 9.2 mph - N/A   Mostly Cloudy
1:15 PM 64.4 °F - 46.4 °F 52% 29.97 in 10.0 mi NW 13.8 mph 18.4 mph N/A   Overcast
1:35 PM 66.2 °F - 46.4 °F 49% 29.97 in 10.0 mi NW 10.4 mph 20.7 mph N/A   Overcast
1:55 PM 64.4 °F - 44.6 °F 49% 29.98 in 10.0 mi NW 13.8 mph 21.9 mph N/A   Mostly Cloudy
2:15 PM 64.4 °F - 46.4 °F 52% 29.99 in 10.0 mi NW 15.0 mph 23.0 mph N/A   Overcast
2:35 PM 64.4 °F - 44.6 °F 49% 29.99 in 10.0 mi NW 10.4 mph 20.7 mph N/A   Overcast
2:55 PM 64.4 °F - 44.6 °F 49% 30.00 in 10.0 mi NW 16.1 mph 23.0 mph N/A   Overcast
3:15 PM 64.4 °F - 44.6 °F 49% 30.00 in 10.0 mi NW 12.7 mph 20.7 mph N/A   Mostly Cloudy
3:35 PM 64.4 °F - 44.6 °F 49% 30.01 in 10.0 mi NW 15.0 mph 24.2 mph N/A   Mostly Cloudy
3:55 PM 64.4 °F - 44.6 °F 49% 30.01 in 10.0 mi NW 13.8 mph 21.9 mph N/A   Mostly Cloudy
4:15 PM 62.6 °F - 42.8 °F 48% 30.02 in 10.0 mi NW 11.5 mph 24.2 mph N/A   Overcast
4:35 PM 64.4 °F - 39.2 °F 40% 30.02 in 10.0 mi North 12.7 mph 25.3 mph N/A   Mostly Cloudy
4:55 PM 64.4 °F - 39.2 °F 40% 30.03 in 10.0 mi NNW 10.4 mph 20.7 mph N/A   Clear
5:15 PM 62.6 °F - 37.4 °F 39% 30.04 in 10.0 mi NNW 18.4 mph 23.0 mph N/A   Clear
5:35 PM 62.6 °F - 37.4 °F 39% 30.05 in 10.0 mi NNW 15.0 mph 26.5 mph N/A   Clear
5:55 PM 62.6 °F - 37.4 °F 39% 30.05 in 10.0 mi NW 16.1 mph 24.2 mph N/A   Clear
6:15 PM 62.6 °F - 37.4 °F 39% 30.06 in 10.0 mi NNW 12.7 mph 25.3 mph N/A   Clear
6:35 PM 60.8 °F - 35.6 °F 39% 30.06 in 10.0 mi NW 16.1 mph 23.0 mph N/A   Clear
6:55 PM 60.8 °F - 37.4 °F 42% 30.06 in 10.0 mi NNW 12.7 mph 17.3 mph N/A   Clear
7:15 PM 60.8 °F - 37.4 °F 42% 30.07 in 10.0 mi NNW 11.5 mph 20.7 mph N/A   Clear
7:35 PM 59.0 °F - 35.6 °F 42% 30.08 in 10.0 mi NW 13.8 mph 19.6 mph N/A   Clear
7:55 PM 57.2 °F - 37.4 °F 48% 30.09 in 10.0 mi NNW 5.8 mph - N/A   Clear
8:15 PM 57.2 °F - 35.6 °F 44% 30.11 in 10.0 mi NNW 10.4 mph - N/A   Clear
8:35 PM 55.4 °F - 35.6 °F 47% 30.11 in 10.0 mi NNW 8.1 mph 16.1 mph N/A   Clear
8:55 PM 55.4 °F - 35.6 °F 47% 30.12 in 10.0 mi NW 5.8 mph - N/A   Clear
9:15 PM 53.6 °F - 35.6 °F 51% 30.13 in 10.0 mi NNW 6.9 mph - N/A   Clear
9:35 PM 53.6 °F - 35.6 °F 51% 30.13 in 10.0 mi NW 5.8 mph - N/A   Clear
9:55 PM 51.8 °F - 35.6 °F 54% 30.15 in 10.0 mi NW 3.5 mph - N/A   Clear
10:15 PM 48.2 °F - 37.4 °F 66% 30.16 in 10.0 mi NW 6.9 mph - N/A   Clear
10:35 PM 50.0 °F - 37.4 °F 62% 30.16 in 10.0 mi NW 4.6 mph - N/A   Clear
10:55 PM 50.0 °F - 37.4 °F 62% 30.16 in 10.0 mi Calm Calm - N/A   Clear
11:15 PM 50.0 °F - 37.4 °F 62% 30.16 in 10.0 mi NW 5.8 mph - N/A   Clear
11:35 PM 44.6 °F 43.1 °F 37.4 °F 76% 30.16 in 10.0 mi NNW 3.5 mph - N/A   Clear
11:55 PM 46.4 °F - 37.4 °F 71% 30.16 in 10.0 mi Calm Calm - N/A   Clear